Location: Couloutre
(47.4081°N, 3.2259°E)
Time: 05:07:12
(UTC+00:00)

H-2A R/B - Pass Details

Date: 27 February 2020
Orbit: 733 x 837 km, 98.2° (Epoch: 29 March)

Event Time Altitude Azimuth Distance (km) Brightness Sun altitude
Rises 18:23:45 0° 138° (SE) 3,350 4.9 -10.2°
Reaches altitude 10° 18:26:15 10° 130° (SE) 2,431 4.1 -10.6°
Maximum altitude 18:31:07 36° 65° (ENE) 1,311 2.8 -11.4°
Drops below altitude 10° 18:36:03 10° 1° (N) 2,463 4.6 -12.2°
Sets 18:38:35 0° 353° (N) 3,400 5.5 -12.7°
